Regional Weather Roundup
Issued by NWS State College, PA

Current Version | Previous Version | Text Only | Print | Product List | Glossary On
Versions: 1 2 3 4 5 6 7 8 9 10 11 12 13 14 15 16 17 18 19 20 21 22 23 24 25 26 27 28 29 30 31 32 33 34 35 36 37 38 39 40 41 42 43 44 45 46 47 48 49 50
000
ASUS41 KCTP 060310
RWRCTP

REGIONAL WEATHER ROUNDUP
NATIONAL WEATHER SERVICE STATE COLLEGE PA
1000 PM EST MON DEC 05 2016

Note: "fair" indicates few or no clouds below 12,000 feet with no
significant weather and/or obstructions to visibility.

* = STATION THAT DOES NOT REPORT PRECIPITATION /E.G. RAIN...SNOW...ETC/
    THUNDER OR FOG.

PAZ002>004-007>009-013>016-020>023-029>032-060400-
WESTERN PENNSYLVANIA

CITY           SKY/WX    TMP DP  RH WIND       PRES   REMARKS
ERIE           CLOUDY    37  29  72 SW5       30.10S
MEADVILLE      CLEAR     31  26  82 CALM      30.08S
FRANKLIN*        N/A     28  23  80 CALM      30.09S
NEW CASTLE     FAIR      26  24  92 CALM      30.09F
BEAVER COUNTY  NOT AVBL
BUTLER*        CLOUDY    27  21  80 NE5       30.10S
PITTSBURGH INT CLOUDY    33  29  85 CALM      30.07F
PITTSBURGH     CLOUDY    35  26  69 NE5       30.07S
INDIANA*       CLEAR     30  28  93 CALM      30.11S
LATROBE        CLEAR     28  28 100 CALM      30.09F
WASHINGTON CO* CLOUDY    27  21  80 CALM      30.07F
$$

PAZ004>006-010>012-017>019-024>028-033>037-041-042-045-046-049>053-060400-
CENTRAL PENNSYLVANIA

CITY           SKY/WX    TMP DP  RH WIND       PRES   REMARKS
BRADFORD       CLOUDY    33  28  81 CALM      30.06R
DUBOIS         CLOUDY    32  27  81 CALM      30.07R
CLEARFIELD     CLOUDY    29  28  96 N5        30.08F
JOHNSTOWN      CLOUDY    31  27  85 NE6       30.04S
ALTOONA        CLOUDY    33  28  81 CALM      30.09R
STATE COLLEGE  NOT AVBL
WILLIAMSPORT   CLOUDY    40  31  70 CALM      30.11R
SELINSGROVE    PTCLDY    30  30 100 CALM      30.12R
FT INDIANTOWN  PTCLDY    39  29  68 NW2       30.10R
CAPITAL CITY   PTCLDY    37  30  75 W3        30.11S
HARRISBURG     CLOUDY    37  32  82 CALM      30.11R
YORK           CLOUDY    32  30  92 CALM      30.11R
$$

PAZ038>040-043-044-047-048-054-055-060>062-067>071-060400-
EASTERN PENNSYLVANIA

CITY           SKY/WX    TMP DP  RH WIND       PRES   REMARKS
SCRANTON       CLOUDY    36  28  73 W3        30.08R
MOUNT POCONO   CLOUDY    32  26  78 W7        30.03R
ALLENTOWN      CLOUDY    39  28  64 W5        30.10S
QUAKERTOWN*    PTCLDY    32  30  93 CALM      30.10S
READING        CLOUDY    36  28  73 CALM      30.10S
LANCASTER      CLOUDY    38  31  76 NW3       30.10S
COATESVILLE    CLOUDY    39  30  70 NW8       30.10S
POTTSTOWN      MOCLDY    36  30  79 CALM      30.11S
BLUE BELL      PTCLDY    37  32  81 CALM      30.09S
DOYLESTOWN     CLOUDY    40  30  67 NW3       30.08S
WILLOW GROVE   NOT AVBL
NORTH PHILA    PTCLDY    41  32  70 NW5       30.11S
PHILADELPHIA   CLOUDY    43  31  62 NW6       30.11S
$$




USA.gov is the U.S. government's official web portal to all federal, state and local government web resources and services.